Location: Banios
(43.0451°N, 0.2335°E)
Time: 13:54:32
(UTC+00:00)

Meteor 1-11 - Pass Details

Date: 25 January 2021
Orbit: 840 x 887 km, 81.2° (Epoch: 25 February)

Event Time Altitude Azimuth Distance (km) Brightness Sun altitude
Rises 05:54:21 0° 348° (NNW) 3,408 7.1 -15.8°
Reaches altitude 10° 05:56:47 10° 348° (NNW) 2,467 6.4 -15.4°
Maximum altitude 06:02:22 82° 262° (W) 854 4.1 -14.4°
Drops below altitude 10° 06:07:56 10° 175° (S) 2,456 6.8 -13.4°
Sets 06:10:20 0° 175° (S) 3,390 7.6 -13.0°
